Location: Clarion
(42.7316°N, 93.7330°W)
Time: 08:45:17
(UTC+00:00)

ADEOS II - Pass Details

Date: 22 April 2026
Orbit: 793 x 795 km, 98.8° (Epoch: 17 May)

Event Time Altitude Azimuth Distance (km) Brightness Sun altitude
Rises 08:49:39 0° 20° (NNE) 3,304 6.4 -24.4°
Reaches altitude 10° 08:52:06 10° 26° (NNE) 2,370 5.5 -24.1°
Maximum altitude 08:57:06 45° 99° (E) 1,074 2.9 -23.5°
Enters shadow 08:59:46 25° 158° (SSE) 1,553 3.4 -23.1°
